Ainsworth, NE

7:09 AM CDT on October 22, 2019 (GMT -0500)
Ainsworth Municipal

Weather History for KANW - August, 2019

Change the Weather History Date:

Wednesday, August 21, 2019

  Actual Average Record
Temperature  
Mean Temperature 70 °F -  
Max Temperature 77 °F 83 °F 98 °F (2010)
Min Temperature 62 °F 59 °F 46 °F (2016)
Cooling Degree Days 4    
Growing Degree Days 20 (Base 50)    
Moisture  
Dew Point 65 °F    
Average Humidity 89    
Maximum Humidity 100    
Minimum Humidity 57    
Precipitation  
Precipitation 0.69 in - - ()
Sea Level Pressure  
Sea Level Pressure 30.11 in    
Wind  
Wind Speed 8 mph ()    
Max Wind Speed 22 mph    
Max Gust Speed 30 mph    
Visibility 9.3 miles    
Events Rain , Thunderstorm    
Averages and records for this station are not official NWS values.
T = Trace of Precipitation, MM = Missing Value Source: Averaged Metar Reports

Daily Weather History Graph

Daily Weather History Graph

Search for Another Location

Airport or City:

Astronomy

Aug. 21, 2019 Rise Set
Actual Time 6:52 AM CDT 8:32 PM CDT
Civil Twilight 6:23 AM CDT 9:02 PM CDT
Nautical Twilight 5:46 AM CDT 9:38 PM CDT
Astronomical Twilight 5:07 AM CDT 10:17 PM CDT
Moon 11:43 PM CDT (8/21) 12:37 PM CDT (8/21)
Length of Visible Light 14h 39m
Length of Day
13h 39m
Waning Gibbous, 69% of the Moon is Illuminated
Aug 21
Waning Gibbous
Aug 23
Last Quarter
Aug 30
New
Sep 5
First Quarter
Sep 13
Full

Hourly Weather History & Observations

Time (CDT) Temp. Dew Point Humidity Pressure Visibility Wind Dir Wind Speed Gust Speed Precip Events Conditions
12:15 AM 68.2 °F 68.2 °F 100% 30.12 in 10.0 mi NNE 4.6 mph - N/A   Scattered Clouds
12:35 AM 68.0 °F 68.0 °F 100% 30.10 in 10.0 mi ENE 9.2 mph - N/A   Mostly Cloudy
12:55 AM 68.0 °F 68.0 °F 100% 30.09 in 10.0 mi East 10.4 mph - N/A   Mostly Cloudy
1:15 AM 67.5 °F 67.5 °F 100% 30.09 in 10.0 mi NE 6.9 mph - N/A Rain Light Rain
1:35 AM 67.5 °F 67.5 °F 100% 30.09 in 10.0 mi ENE 6.9 mph - N/A   Clear
1:55 AM 67.3 °F 67.3 °F 100% 30.08 in 10.0 mi NE 8.1 mph - N/A   Clear
2:15 AM 66.7 °F 66.7 °F 100% 30.05 in 10.0 mi ENE 12.7 mph 20.7 mph N/A Thunderstorm Mostly Cloudy
2:35 AM 66.4 °F 66.4 °F 100% 30.06 in 10.0 mi ENE 9.2 mph - N/A   Scattered Clouds
2:55 AM 65.7 °F 65.7 °F 100% 30.08 in 10.0 mi East 8.1 mph - N/A   Scattered Clouds
3:15 AM 65.8 °F 65.8 °F 100% 30.09 in 10.0 mi ENE 8.1 mph - N/A Thunderstorm Overcast
3:35 AM 65.7 °F 65.7 °F 100% 30.08 in 10.0 mi East 12.7 mph 20.7 mph N/A   Overcast
3:55 AM 65.3 °F 65.3 °F 100% 30.08 in 10.0 mi East 11.5 mph - N/A   Overcast
4:15 AM 65.3 °F 65.3 °F 100% 30.10 in 10.0 mi East 12.7 mph 18.4 mph N/A   Overcast
4:35 AM 64.9 °F 64.9 °F 100% 30.10 in 10.0 mi East 10.4 mph 17.3 mph N/A Thunderstorm Overcast
4:55 AM 65.3 °F 65.3 °F 100% 30.08 in 10.0 mi East 13.8 mph 19.6 mph N/A Rain Light Rain
5:15 AM 65.3 °F 65.3 °F 100% 30.12 in 10.0 mi ENE 10.4 mph - N/A Rain Light Rain
5:35 AM 65.3 °F 65.3 °F 100% 30.15 in 7.0 mi ENE 9.2 mph - 0.03 in Rain , Thunderstorm Light Thunderstorms and Rain
5:55 AM 65.3 °F 65.3 °F 100% 30.15 in 5.0 mi East 9.2 mph - 0.08 in Rain , Thunderstorm Thunderstorms and Rain
6:15 AM 65.3 °F 65.3 °F 100% 30.15 in 4.0 mi East 8.1 mph - 0.06 in Rain , Thunderstorm Rain
6:35 AM 65.3 °F 65.3 °F 100% 30.14 in 4.0 mi East 11.5 mph 16.1 mph 0.11 in Rain , Thunderstorm Rain
6:55 AM 64.8 °F 64.8 °F 100% 30.13 in 5.0 mi ENE 17.3 mph 21.9 mph 0.18 in Rain , Thunderstorm Light Thunderstorms and Rain
7:15 AM 63.1 °F 63.1 °F 100% 30.11 in 4.0 mi NE 21.9 mph 29.9 mph 0.10 in Rain Rain
7:35 AM 62.6 °F 62.6 °F 100% 30.13 in 4.0 mi NE 19.6 mph 28.8 mph 0.27 in Rain Rain
7:55 AM 62.6 °F 62.6 °F 100% 30.10 in 3.0 mi ESE 19.6 mph 23.0 mph 0.38 in Rain Rain
8:15 AM 63.7 °F 63.7 °F 100% 30.12 in 5.0 mi East 10.4 mph - 0.04 in Rain Light Rain
8:35 AM 63.9 °F 63.9 °F 100% 30.13 in 10.0 mi NNE 8.1 mph - 0.05 in Rain Light Rain
8:55 AM 62.8 °F 62.8 °F 100% 30.12 in 10.0 mi NE 9.2 mph - 0.05 in   Light Drizzle
9:15 AM 63.0 °F 63.0 °F 100% 30.15 in 10.0 mi NE 10.4 mph - N/A   Overcast
9:35 AM 63.5 °F 63.5 °F 100% 30.14 in 10.0 mi NE 11.5 mph - N/A   Overcast
9:55 AM 64.0 °F 64.0 °F 100% 30.14 in 10.0 mi ENE 10.4 mph - N/A   Mostly Cloudy
10:15 AM 66.6 °F 66.6 °F 100% 30.15 in 10.0 mi East 8.1 mph - N/A   Scattered Clouds
10:35 AM 67.3 °F 66.9 °F 99% 30.14 in 10.0 mi East 8.1 mph - N/A   Clear
10:55 AM 70.2 °F 67.5 °F 91% 30.14 in 10.0 mi East 10.4 mph - N/A   Clear
11:15 AM 71.1 °F 67.3 °F 88% 30.14 in 10.0 mi SE 11.5 mph - N/A   Clear
11:35 AM 71.1 °F 66.4 °F 85% 30.15 in 10.0 mi ESE 9.2 mph - N/A   Clear
11:55 AM 72.7 °F 67.1 °F 83% 30.15 in 10.0 mi ESE 9.2 mph - N/A   Clear
12:15 PM 73.0 °F 65.5 °F 77% 30.15 in 10.0 mi ESE 11.5 mph - N/A   Clear
12:35 PM 74.1 °F 65.7 °F 75% 30.15 in 10.0 mi ESE 8.1 mph - N/A   Clear
12:55 PM 74.5 °F 64.8 °F 72% 30.15 in 10.0 mi ESE 6.9 mph - N/A   Clear
1:15 PM 75.4 °F 64.8 °F 69% 30.15 in 10.0 mi SE 9.2 mph - N/A   Clear
1:35 PM 76.3 °F 65.3 °F 69% 30.14 in 10.0 mi SSE 8.1 mph - N/A   Mostly Cloudy
1:55 PM 76.3 °F 63.5 °F 64% 30.14 in 10.0 mi SE 8.1 mph - N/A   Mostly Cloudy
2:15 PM 76.1 °F 64.4 °F 67% 30.13 in 10.0 mi SSE 8.1 mph - N/A   Mostly Cloudy
2:35 PM 75.4 °F 63.5 °F 66% 30.13 in 10.0 mi ESE 3.5 mph - N/A   Scattered Clouds
2:55 PM 76.8 °F 63.5 °F 63% 30.13 in 10.0 mi ESE 5.8 mph - N/A   Scattered Clouds
3:15 PM 77.0 °F 63.9 °F 64% 30.12 in 10.0 mi East 6.9 mph - N/A   Scattered Clouds
3:35 PM 76.8 °F 62.8 °F 62% 30.12 in 10.0 mi East 4.6 mph - N/A   Scattered Clouds
3:55 PM 77.0 °F 61.9 °F 59% 30.11 in 10.0 mi ENE 3.5 mph - N/A   Clear
4:15 PM 77.7 °F 61.5 °F 57% 30.11 in 10.0 mi East 5.8 mph - N/A   Clear
4:35 PM 77.9 °F 63.1 °F 60% 30.10 in 10.0 mi ENE 4.6 mph - N/A   Clear
4:55 PM 76.5 °F 64.0 °F 65% 30.10 in 10.0 mi NE 10.4 mph - N/A   Scattered Clouds
5:15 PM 76.8 °F 66.2 °F 70% 30.10 in 10.0 mi ENE 5.8 mph - N/A   Scattered Clouds
5:35 PM 77.0 °F 64.6 °F 65% 30.09 in 10.0 mi East 8.1 mph - N/A   Scattered Clouds
5:55 PM 76.3 °F 67.3 °F 74% 30.09 in 10.0 mi ENE 8.1 mph - N/A   Scattered Clouds
6:15 PM 75.7 °F 67.5 °F 75% 30.08 in 10.0 mi ENE 9.2 mph - N/A   Scattered Clouds
6:35 PM 75.2 °F 66.7 °F 75% 30.08 in 10.0 mi East 9.2 mph - N/A   Clear
6:55 PM 74.5 °F 66.7 °F 77% 30.08 in 10.0 mi East 10.4 mph - N/A   Clear
7:15 PM 73.6 °F 65.7 °F 76% 30.07 in 10.0 mi East 9.2 mph - N/A   Clear
7:35 PM 72.5 °F 66.7 °F 82% 30.07 in 10.0 mi East 8.1 mph - N/A   Clear
7:55 PM 71.6 °F 68.4 °F 89% 30.07 in 10.0 mi East 6.9 mph - N/A   Clear
8:15 PM 69.8 °F 68.4 °F 95% 30.07 in 10.0 mi East 6.9 mph - N/A   Clear
8:35 PM 68.5 °F 68.5 °F 100% 30.07 in 10.0 mi ESE 5.8 mph - N/A   Clear
8:55 PM 68.0 °F 68.0 °F 100% 30.08 in 10.0 mi ESE 5.8 mph - N/A   Clear
9:15 PM 67.5 °F 67.5 °F 100% 30.09 in 10.0 mi ESE 6.9 mph - N/A   Clear
9:35 PM 66.7 °F 66.7 °F 100% 30.10 in 10.0 mi ESE 5.8 mph - N/A   Clear
9:55 PM 66.4 °F 66.4 °F 100% 30.10 in 10.0 mi ESE 4.6 mph - N/A   Clear
10:15 PM 65.8 °F 65.8 °F 100% 30.10 in 10.0 mi SE 4.6 mph - N/A   Clear
10:35 PM 65.3 °F 65.3 °F 100% 30.11 in 10.0 mi SE 3.5 mph - N/A   Clear
10:55 PM 65.3 °F 65.3 °F 100% 30.11 in 10.0 mi ESE 3.5 mph - N/A   Clear
11:15 PM 64.4 °F 64.4 °F 100% 30.11 in 10.0 mi ESE 3.5 mph - N/A   Clear
11:35 PM 63.9 °F 63.9 °F 100% 30.11 in 10.0 mi ESE 4.6 mph - N/A   Clear
11:55 PM 63.5 °F 63.5 °F 100% 30.11 in 10.0 mi ESE 3.5 mph - N/A   Clear